FW3054 Weather Reports


time (UTC)temp
F
wind
direction
speed
knots
gust
knots
rain 1hr
in
rain 24hr
in
rain mn
in
humidity
%
barometer
mb
20260831043516 69 0.0 0.0 0.00 0.00 0.00 90 1023.7
20260831042518 70 0.0 0.0 0.00 0.00 0.00 90 1023.5
20260831041536 70 0.0 0.0 0.00 0.00 0.00 90 1023.5
20260831040516 70 0.0 0.0 0.00 0.00 0.00 90 1023.5
20260831035516 70 0.0 0.0 0.00 0.00 0.00 89 1023.3
20260831034517 71 0.0 0.0 0.00 0.00 0.00 89 1023.5
20260831033517 71 0.0 0.0 0.00 0.00 0.00 89 1023.5
20260831032516 72 0.0 0.0 0.00 0.00 0.00 89 1023.5
20260831031516 72 0.0 0.0 0.00 0.00 0.00 88 1023.6
20260831030557 72 0.0 0.0 0.00 0.00 0.00 88 1023.6
20260831025516 72 0.0 0.0 0.00 0.00 0.00 88 1023.6
20260831024536 73 0.0 0.0 0.00 0.00 0.00 87 1023.7
20260831023517 73 0.0 0.0 0.00 0.00 0.00 87 1023.7
20260831022517 74 0.0 0.9 0.00 0.00 0.00 86 1023.6
20260831021517 74 0.0 0.9 0.00 0.00 0.00 85 1023.6
20260831020516 75 0.0 0.0 0.00 0.00 0.00 84 1023.5
20260831015517 75 0.0 0.0 0.00 0.00 0.00 83 1023.4
20260831014536 76 0.0 0.9 0.00 0.00 0.00 83 1023.4
20260831013516 76 0.0 0.0 0.00 0.00 0.00 82 1023.3
20260831012516 76 0.0 0.0 0.00 0.00 0.00 81 1023.0
20260831011516 76 0.0 0.0 0.00 0.00 0.00 82 1022.8
20260831010536 76 0.0 0.0 0.00 0.00 0.00 82 1022.6
20260831005516 76 0.0 0.9 0.00 0.00 0.00 83 1022.5
20260831004516 76 0.0 1.7 0.00 0.00 0.00 83 1022.4
20260831003536 76 0.0 1.7 0.00 0.00 0.00 82 1022.4
20260831002516 77 0.0 0.9 0.00 0.00 0.00 81 1022.4
20260831001516 77 0.0 0.9 0.00 0.00 0.00 80 1022.5
20260831000516 78 0.0 0.0 0.00 0.00 0.00 79 1022.4
20260830235516 78 0.0 0.0 0.00 0.00 0.00 78 1022.3
20260830234516 78 0.0 0.0 0.00 0.00 0.00 78 1022.2
20260830233516 78 0.0 0.9 0.00 0.00 0.00 78 1022.0
20260830232516 79 0.0 0.0 0.00 0.00 0.00 77 1022.1
20260830231516 79 0.0 0.9 0.00 0.00 0.00 76 1022.1
20260830230516 79 0.0 0.0 0.00 0.00 0.00 75 1022.0
20260830225516 80 0.0 0.9 0.00 0.00 0.00 75 1022.1
20260830224516 81 0.0 0.9 0.00 0.00 0.00 74 1022.3
20260830223516 81 0.0 0.9 0.00 0.00 0.00 70 1022.2
20260830222516 82 0.0 0.0 0.00 0.00 0.00 70 1022.2
20260830221516 82 0.0 0.0 0.00 0.00 0.00 68 1022.3
20260830220516 82 0.0 0.0 0.00 0.00 0.00 68 1022.1
20260830215516 83 0.0 0.0 0.00 0.00 0.00 68 1022.1
20260830214516 84 0.0 0.0 0.00 0.00 0.00 64 1022.2
20260830213536 84 0.0 0.0 0.00 0.00 0.00 59 1022.1
20260830212516 85 0.0 0.0 0.00 0.00 0.00 58 1022.2
20260830211516 85 0.0 0.0 0.00 0.00 0.00 58 1022.3
20260830210516 87 0.0 0.0 0.00 0.00 0.00 55 1022.3
20260830205516 88 0.0 0.9 0.00 0.00 0.00 53 1022.4
20260830204516 89 0.0 1.7 0.00 0.00 0.00 52 1022.6
20260830203516 90 0.0 0.0 0.00 0.00 0.00 55 1022.6
20260830202516 90 0.0 0.9 0.00 0.00 0.00 51 1022.7
20260830201556 90 0.0 0.9 0.00 0.00 0.00 51 1022.6
20260830200516 90 0.0 0.9 0.00 0.00 0.00 54 1022.8
20260830195516 89 0.0 0.9 0.00 0.00 0.00 53 1022.9
20260830194516 90 135 0.9 0.9 0.00 0.00 0.00 53 1023.0
20260830193516 90 0.0 0.9 0.00 0.00 0.00 53 1023.1
20260830192556 90 0.0 0.9 0.00 0.00 0.00 53 1023.4
20260830191536 90 0.0 1.7 0.00 0.00 0.00 53 1023.6
20260830190516 90 0.0 0.9 0.00 0.00 0.00 54 1023.9
20260830185515 89 0.0 0.9 0.00 0.00 0.00 55 1023.8
20260830184515 88 0.0 1.7 0.00 0.00 0.00 56 1024.0
20260830183516 88 135 0.9 0.9 0.00 0.00 0.00 58 1024.2
20260830182516 87 0.0 1.7 0.00 0.00 0.00 59 1024.4
20260830181536 87 0.0 0.0 0.00 0.00 0.00 59 1024.5
20260830180516 87 0.0 0.0 0.00 0.00 0.00 59 1024.7
20260830175535 87 0.0 0.0 0.00 0.00 0.00 62 1024.8
20260830174515 87 0.0 0.0 0.00 0.00 0.00 62 1025.1
20260830173515 86 0.0 0.0 0.00 0.00 0.00 64 1025.0
20260830172536 85 0.0 0.0 0.00 0.00 0.00 65 1025.1
20260830171516 85 0.0 0.0 0.00 0.00 0.00 66 1025.3
20260830170516 84 0.0 0.0 0.00 0.00 0.00 69 1025.4
20260830165535 83 0.0 0.0 0.00 0.00 0.00 70 1025.4
20260830164515 82 0.0 0.0 0.00 0.00 0.00 70 1025.5
20260830163517 81 0.0 0.0 0.00 0.00 0.00 74 1025.4
20260830162536 80 0.0 0.0 0.00 0.00 0.00 76 1025.6
20260830161516 79 0.0 0.0 0.00 0.00 0.00 77 1025.5
20260830160515 78 0.0 0.9 0.00 0.00 0.00 80 1025.6
20260830155536 78 0.0 0.9 0.00 0.00 0.00 81 1025.6
20260830154515 77 0.0 0.9 0.00 0.00 0.00 81 1025.5
20260830153515 77 0.0 0.9 0.00 0.00 0.00 82 1025.6
20260830152515 76 0.0 0.9 0.00 0.00 0.00 84 1025.5
20260830151515 75 0.0 0.9 0.00 0.00 0.00 86 1025.6
20260830150515 75 0.0 0.9 0.00 0.00 0.00 86 1025.5
20260830145515 74 0.0 0.0 0.00 0.00 0.00 89 1025.8
20260830144515 73 0.0 0.9 0.00 0.00 0.00 89 1025.7
20260830143535 73 0.0 0.9 0.00 0.00 0.00 90 1025.7
20260830142515 72 0.0 0.9 0.00 0.00 0.00 90 1025.7
20260830141515 72 0.0 0.9 0.00 0.00 0.00 87 1025.6
20260830140515 71 0.0 0.0 0.00 0.00 0.00 82 1025.6
20260830135515 71 0.0 0.0 0.00 0.00 0.00 80 1025.6
20260830134537 70 0.0 0.0 0.00 0.00 0.00 79 1025.4
20260830133515 70 0.0 0.0 0.00 0.00 0.00 80 1025.4
20260830132517 69 0.0 0.0 0.00 0.00 0.00 79 1025.5
20260830131515 69 0.0 0.0 0.00 0.00 0.00 79 1025.7
20260830130517 68 0.0 0.0 0.00 0.00 0.00 78 1025.4
20260830125517 68 0.0 0.0 0.00 0.00 0.00 78 1025.6
20260830124537 68 0.0 0.0 0.00 0.00 0.00 78 1025.6
20260830123517 68 0.0 0.0 0.00 0.00 0.00 78 1025.4
20260830122517 67 0.0 0.0 0.00 0.00 0.00 78 1025.3
20260830121517 67 0.0 0.0 0.00 0.00 0.00 79 1025.3
20260830120517 67 0.0 0.0 0.00 0.00 0.00 79 1025.1
20260830115537 67 0.0 0.0 0.00 0.00 0.00 81 1025.1
20260830114517 67 0.0 0.0 0.00 0.00 0.00 80 1025.0
20260830113517 67 0.0 0.0 0.00 0.00 0.00 80 1025.0
20260830112517 67 0.0 0.0 0.00 0.00 0.00 80 1024.9
20260830111517 67 0.0 0.0 0.00 0.00 0.00 79 1024.8
20260830110517 67 0.0 0.0 0.00 0.00 0.00 80 1024.6
20260830105517 67 0.0 0.0 0.00 0.00 0.00 80 1024.4
20260830104517 67 0.0 0.0 0.00 0.00 0.00 80 1024.4
20260830103517 67 0.0 0.0 0.00 0.00 0.00 81 1024.4
20260830102517 67 0.0 0.0 0.00 0.00 0.00 81 1024.5
20260830101517 67 0.0 0.0 0.00 0.00 0.00 81 1024.5
20260830100537 67 0.0 0.0 0.00 0.00 0.00 81 1024.6
20260830095517 67 0.0 0.0 0.00 0.00 0.00 82 1024.3
20260830094517 67 0.0 0.0 0.00 0.00 0.00 82 1024.3
20260830093516 67 0.0 0.0 0.00 0.00 0.00 81 1024.2
20260830092517 67 0.0 0.0 0.00 0.00 0.00 81 1024.5
20260830091517 67 0.0 0.0 0.00 0.00 0.00 81 1024.4
20260830090517 67 0.0 0.0 0.00 0.00 0.00 82 1024.5
20260830085537 67 0.0 0.0 0.00 0.00 0.00 83 1024.6
20260830084517 67 0.0 0.0 0.00 0.00 0.00 84 1024.5
20260830083517 67 0.0 0.0 0.00 0.00 0.00 85 1024.6
20260830082517 67 0.0 0.0 0.00 0.00 0.00 86 1024.6
20260830081516 67 0.0 0.0 0.00 0.00 0.00 86 1024.6
20260830080516 67 0.0 0.0 0.00 0.00 0.00 87 1024.5
20260830075556 67 0.0 0.0 0.00 0.00 0.00 87 1024.6
20260830074517 67 0.0 0.0 0.00 0.00 0.00 87 1024.4
20260830073516 68 0.0 0.0 0.00 0.00 0.00 88 1024.5
20260830072517 68 0.0 0.0 0.00 0.00 0.00 88 1024.5
20260830071517 68 0.0 0.0 0.00 0.00 0.00 88 1024.4
20260830070516 68 0.0 0.0 0.00 0.00 0.00 88 1024.4
20260830065517 68 0.0 0.0 0.00 0.00 0.00 89 1024.4
20260830064516 68 0.0 0.0 0.00 0.00 0.00 88 1024.6
20260830063556 68 0.0 0.0 0.00 0.00 0.00 89 1024.8
20260830062536 69 0.0 0.0 0.00 0.00 0.00 89 1024.9
20260830061517 69 0.0 0.0 0.00 0.00 0.00 89 1024.9
20260830060516 69 0.0 0.0 0.00 0.00 0.00 89 1025.1
20260830055516 69 0.0 0.0 0.00 0.00 0.00 90 1025.0
20260830054517 69 0.0 0.0 0.00 0.00 0.00 90 1025.0
20260830053517 69 0.0 0.0 0.00 0.00 0.00 90 1025.1
20260830052516 69 0.0 0.0 0.00 0.00 0.00 90 1024.9
20260830051516 69 0.0 0.0 0.00 0.00 0.00 90 1024.9
20260830050516 69 0.0 0.0 0.00 0.00 0.00 90 1024.8
20260830045516 70 0.0 0.0 0.00 0.00 0.00 90 1024.9
20260830044516 70 0.0 0.0 0.00 0.00 0.00 90 1024.9